owner,sensor,date,latitude,longitude,sea_surface_height_above_sea_level,qcFlag 
TCOON,ioos:station:TCOON:031:1,2013-12-09T14:54:00Z,28.4073,-96.7122,0.48,1111122 
TCOON,ioos:station:TCOON:031:1,2013-12-09T15:24:00Z,28.4073,-96.7122,0.471,1111122 
TCOON,ioos:station:TCOON:031:1,2013-12-09T16:48:00Z,28.4073,-96.7122,0.502,1111122 
TCOON,ioos:station:TCOON:031:1,2013-12-09T17:24:00Z,28.4073,-96.7122,0.526,1111122 
TCOON,ioos:station:TCOON:031:1,2013-12-09T18:24:00Z,28.4073,-96.7122,0.496,1111122 
TCOON,ioos:station:TCOON:031:1,2013-12-09T19:24:00Z,28.4073,-96.7122,0.472,1111122 
TCOON,ioos:station:TCOON:031:1,2013-12-09T20:24:00Z,28.4073,-96.7122,0.455,1111122 
TCOON,ioos:station:TCOON:031:1,2013-12-09T21:24:00Z,28.4073,-96.7122,0.463,1111122 
TCOON,ioos:station:TCOON:031:1,2013-12-09T22:24:00Z,28.4073,-96.7122,0.444,1111122 
TCOON,ioos:station:TCOON:031:1,2013-12-09T23:24:00Z,28.4073,-96.7122,0.442,1111122 
TCOON,ioos:station:TCOON:031:1,2013-12-10T00:24:00Z,28.4073,-96.7122,0.436,1111122 
TCOON,ioos:station:TCOON:031:1,2013-12-10T01:24:00Z,28.4073,-96.7122,0.427,1111122 
TCOON,ioos:station:TCOON:031:1,2013-12-10T02:24:00Z,28.4073,-96.7122,0.435,1111122 
TCOON,ioos:station:TCOON:031:1,2013-12-10T03:24:00Z,28.4073,-96.7122,0.41,1111122 
TCOON,ioos:station:TCOON:031:1,2013-12-10T04:24:00Z,28.4073,-96.7122,0.394,1111122 
TCOON,ioos:station:TCOON:031:1,2013-12-10T09:24:00Z,28.4073,-96.7122,0.386,1111122 
TCOON,ioos:station:TCOON:031:1,2013-12-10T10:54:00Z,28.4073,-96.7122,0.384,1111122 
TCOON,ioos:station:TCOON:031:1,2013-12-10T12:24:00Z,28.4073,-96.7122,0.248,1111122 
TCOON,ioos:station:TCOON:031:1,2013-12-10T20:24:00Z,28.4073,-96.7122,0.486,1111122 
TCOON,ioos:station:TCOON:031:1,2013-12-11T01:54:00Z,28.4073,-96.7122,0.43,1111122 
TCOON,ioos:station:TCOON:031:1,2013-12-11T17:54:00Z,28.4073,-96.7122,0.379,1111122 
TCOON,ioos:station:TCOON:031:1,2013-12-11T19:24:00Z,28.4073,-96.7122,0.383,1111122 
TCOON,ioos:station:TCOON:031:1,2013-12-11T21:24:00Z,28.4073,-96.7122,0.399,1111122 
TCOON,ioos:station:TCOON:031:1,2013-12-12T11:24:00Z,28.4073,-96.7122,0.395,1111122 
TCOON,ioos:station:TCOON:031:1,2013-12-12T15:24:00Z,28.4073,-96.7122,0.368,1111122 
TCOON,ioos:station:TCOON:031:1,2013-12-12T16:24:00Z,28.4073,-96.7122,0.381,1111122 
TCOON,ioos:station:TCOON:031:1,2013-12-12T17:24:00Z,28.4073,-96.7122,0.4,1111122 
TCOON,ioos:station:TCOON:031:1,2013-12-12T19:24:00Z,28.4073,-96.7122,0.385,1111122 
TCOON,ioos:station:TCOON:031:1,2013-12-12T21:24:00Z,28.4073,-96.7122,0.356,1111122 
TCOON,ioos:station:TCOON:031:1,2013-12-12T22:24:00Z,28.4073,-96.7122,0.387,1111122 
TCOON,ioos:station:TCOON:031:1,2013-12-12T22:54:00Z,28.4073,-96.7122,0.396,1111122 
TCOON,ioos:station:TCOON:031:1,2013-12-12T23:54:00Z,28.4073,-96.7122,0.409,1111122 
TCOON,ioos:station:TCOON:031:1,2013-12-13T00:54:00Z,28.4073,-96.7122,0.422,1111122 
TCOON,ioos:station:TCOON:031:1,2013-12-13T01:54:00Z,28.4073,-96.7122,0.421,1111122 
TCOON,ioos:station:TCOON:031:1,2013-12-13T02:54:00Z,28.4073,-96.7122,0.421,1111122 
TCOON,ioos:station:TCOON:031:1,2013-12-13T03:54:00Z,28.4073,-96.7122,0.412,1111122 
TCOON,ioos:station:TCOON:031:1,2013-12-13T04:54:00Z,28.4073,-96.7122,0.423,1111122 
TCOON,ioos:station:TCOON:031:1,2013-12-13T06:18:00Z,28.4073,-96.7122,0.425,1111122 
TCOON,ioos:station:TCOON:031:1,2013-12-13T06:48:00Z,28.4073,-96.7122,0.414,1111122 
TCOON,ioos:station:TCOON:031:1,2013-12-13T07:18:00Z,28.4073,-96.7122,0.415,1111122 
TCOON,ioos:station:TCOON:031:1,2013-12-13T07:48:00Z,28.4073,-96.7122,0.42,1111122 
TCOON,ioos:station:TCOON:031:1,2013-12-13T08:18:00Z,28.4073,-96.7122,0.426,1111122 
TCOON,ioos:station:TCOON:031:1,2013-12-13T08:48:00Z,28.4073,-96.7122,0.437,1111122 
TCOON,ioos:station:TCOON:031:1,2013-12-13T09:18:00Z,28.4073,-96.7122,0.441,1111122 
TCOON,ioos:station:TCOON:031:1,2013-12-13T09:48:00Z,28.4073,-96.7122,0.442,1111122 
TCOON,ioos:station:TCOON:031:1,2013-12-13T10:18:00Z,28.4073,-96.7122,0.446,1111122 
TCOON,ioos:station:TCOON:031:1,2013-12-13T10:48:00Z,28.4073,-96.7122,0.429,1111122 
TCOON,ioos:station:TCOON:031:1,2013-12-13T11:18:00Z,28.4073,-96.7122,0.425,1111122 
TCOON,ioos:station:TCOON:031:1,2013-12-13T11:48:00Z,28.4073,-96.7122,0.426,1111122 
TCOON,ioos:station:TCOON:031:1,2013-12-13T12:18:00Z,28.4073,-96.7122,0.431,1111122 
TCOON,ioos:station:TCOON:031:1,2013-12-13T12:54:00Z,28.4073,-96.7122,0.429,1111122 
TCOON,ioos:station:TCOON:031:1,2013-12-13T13:24:00Z,28.4073,-96.7122,0.426,1111122 
TCOON,ioos:station:TCOON:031:1,2013-12-13T13:48:00Z,28.4073,-96.7122,0.42,1111122 
TCOON,ioos:station:TCOON:031:1,2013-12-13T14:24:00Z,28.4073,-96.7122,0.428,1111122 
TCOON,ioos:station:TCOON:031:1,2013-12-13T14:48:00Z,28.4073,-96.7122,0.425,1111122 
TCOON,ioos:station:TCOON:031:1,2013-12-13T15:18:00Z,28.4073,-96.7122,0.423,1111122 
TCOON,ioos:station:TCOON:031:1,2013-12-13T16:48:00Z,28.4073,-96.7122,0.447,1111122 
TCOON,ioos:station:TCOON:031:1,2013-12-13T17:06:00Z,28.4073,-96.7122,0.435,1111122 
TCOON,ioos:station:TCOON:031:1,2013-12-13T17:36:00Z,28.4073,-96.7122,0.424,1111122 
TCOON,ioos:station:TCOON:031:1,2013-12-13T18:06:00Z,28.4073,-96.7122,0.424,1111122 
TCOON,ioos:station:TCOON:031:1,2013-12-13T18:36:00Z,28.4073,-96.7122,0.415,1111122 
TCOON,ioos:station:TCOON:031:1,2013-12-13T19:06:00Z,28.4073,-96.7122,0.42,1111122 
TCOON,ioos:station:TCOON:031:1,2013-12-13T19:36:00Z,28.4073,-96.7122,0.421,1111122 
TCOON,ioos:station:TCOON:031:1,2013-12-13T20:06:00Z,28.4073,-96.7122,0.422,1111122 
TCOON,ioos:station:TCOON:031:1,2013-12-13T20:36:00Z,28.4073,-96.7122,0.419,1111122 
TCOON,ioos:station:TCOON:031:1,2013-12-13T21:06:00Z,28.4073,-96.7122,0.415,1111122 
TCOON,ioos:station:TCOON:031:1,2013-12-13T21:36:00Z,28.4073,-96.7122,0.42,1111122 
TCOON,ioos:station:TCOON:031:1,2013-12-13T22:06:00Z,28.4073,-96.7122,0.429,1111122 
TCOON,ioos:station:TCOON:031:1,2013-12-13T22:36:00Z,28.4073,-96.7122,0.428,1111122 
TCOON,ioos:station:TCOON:031:1,2013-12-13T23:06:00Z,28.4073,-96.7122,0.438,1111122 
TCOON,ioos:station:TCOON:031:1,2013-12-13T23:36:00Z,28.4073,-96.7122,0.44,1111122 
TCOON,ioos:station:TCOON:031:1,2013-12-14T00:06:00Z,28.4073,-96.7122,0.45,1111122 
TCOON,ioos:station:TCOON:031:1,2013-12-14T00:36:00Z,28.4073,-96.7122,0.451,1111122 
TCOON,ioos:station:TCOON:031:1,2013-12-14T01:06:00Z,28.4073,-96.7122,0.451,1111122 
TCOON,ioos:station:TCOON:031:1,2013-12-14T01:36:00Z,28.4073,-96.7122,0.459,1111122 
TCOON,ioos:station:TCOON:031:1,2013-12-14T02:06:00Z,28.4073,-96.7122,0.466,1111122 
TCOON,ioos:station:TCOON:031:1,2013-12-14T02:36:00Z,28.4073,-96.7122,0.457,1111122 
TCOON,ioos:station:TCOON:031:1,2013-12-14T03:06:00Z,28.4073,-96.7122,0.474,1111122 
TCOON,ioos:station:TCOON:031:1,2013-12-14T03:36:00Z,28.4073,-96.7122,0.452,1111122 
TCOON,ioos:station:TCOON:031:1,2013-12-14T04:06:00Z,28.4073,-96.7122,0.465,1111122 
TCOON,ioos:station:TCOON:031:1,2013-12-14T04:36:00Z,28.4073,-96.7122,0.48,1111122 
TCOON,ioos:station:TCOON:031:1,2013-12-14T05:06:00Z,28.4073,-96.7122,0.479,1111122 
TCOON,ioos:station:TCOON:031:1,2013-12-14T06:06:00Z,28.4073,-96.7122,0.492,1111122 
TCOON,ioos:station:TCOON:031:1,2013-12-14T06:36:00Z,28.4073,-96.7122,0.503,1111122 
TCOON,ioos:station:TCOON:031:1,2013-12-14T07:06:00Z,28.4073,-96.7122,0.504,1111122 
TCOON,ioos:station:TCOON:031:1,2013-12-14T07:36:00Z,28.4073,-96.7122,0.513,1111122 
TCOON,ioos:station:TCOON:031:1,2013-12-14T08:06:00Z,28.4073,-96.7122,0.514,1111122 
TCOON,ioos:station:TCOON:031:1,2013-12-14T08:36:00Z,28.4073,-96.7122,0.516,1111122 
TCOON,ioos:station:TCOON:031:1,2013-12-14T09:06:00Z,28.4073,-96.7122,0.518,1111122 
TCOON,ioos:station:TCOON:031:1,2013-12-14T09:36:00Z,28.4073,-96.7122,0.516,1111122 
TCOON,ioos:station:TCOON:031:1,2013-12-14T10:06:00Z,28.4073,-96.7122,0.524,1111122 
TCOON,ioos:station:TCOON:031:1,2013-12-14T10:36:00Z,28.4073,-96.7122,0.52,1111122 
TCOON,ioos:station:TCOON:031:1,2013-12-14T11:06:00Z,28.4073,-96.7122,0.529,1111122 
TCOON,ioos:station:TCOON:031:1,2013-12-14T11:36:00Z,28.4073,-96.7122,0.524,1111122 
TCOON,ioos:station:TCOON:031:1,2013-12-14T12:06:00Z,28.4073,-96.7122,0.518,1111122 
TCOON,ioos:station:TCOON:031:1,2013-12-14T12:36:00Z,28.4073,-96.7122,0.516,1111122 
TCOON,ioos:station:TCOON:031:1,2013-12-14T13:06:00Z,28.4073,-96.7122,0.509,1111122 
TCOON,ioos:station:TCOON:031:1,2013-12-14T13:36:00Z,28.4073,-96.7122,0.5,1111122 
TCOON,ioos:station:TCOON:031:1,2013-12-14T14:06:00Z,28.4073,-96.7122,0.504,1111122 
TCOON,ioos:station:TCOON:031:1,2013-12-14T14:36:00Z,28.4073,-96.7122,0.504,1111122 
TCOON,ioos:station:TCOON:031:1,2013-12-14T15:06:00Z,28.4073,-96.7122,0.496,1111122 
TCOON,ioos:station:TCOON:031:1,2013-12-14T15:36:00Z,28.4073,-96.7122,0.494,1111122 
TCOON,ioos:station:TCOON:031:1,2013-12-14T16:06:00Z,28.4073,-96.7122,0.492,1111122 
TCOON,ioos:station:TCOON:031:1,2013-12-14T16:36:00Z,28.4073,-96.7122,0.497,1111122 
TCOON,ioos:station:TCOON:031:1,2013-12-14T17:06:00Z,28.4073,-96.7122,0.479,1111122 
TCOON,ioos:station:TCOON:031:1,2013-12-14T17:36:00Z,28.4073,-96.7122,0.471,1111122 
TCOON,ioos:station:TCOON:031:1,2013-12-14T18:06:00Z,28.4073,-96.7122,0.452,1111122 
TCOON,ioos:station:TCOON:031:1,2013-12-14T18:36:00Z,28.4073,-96.7122,0.439,1111122 
TCOON,ioos:station:TCOON:031:1,2013-12-14T19:06:00Z,28.4073,-96.7122,0.414,1111122 
TCOON,ioos:station:TCOON:031:1,2013-12-14T19:36:00Z,28.4073,-96.7122,0.378,1111122 
TCOON,ioos:station:TCOON:031:1,2013-12-14T20:12:00Z,28.4073,-96.7122,0.339,1111122 
TCOON,ioos:station:TCOON:031:1,2013-12-14T20:42:00Z,28.4073,-96.7122,0.297,1111122 
TCOON,ioos:station:TCOON:031:1,2013-12-14T21:12:00Z,28.4073,-96.7122,0.275,1111122 
TCOON,ioos:station:TCOON:031:1,2013-12-14T21:42:00Z,28.4073,-96.7122,0.259,1111122 
TCOON,ioos:station:TCOON:031:1,2013-12-14T22:06:00Z,28.4073,-96.7122,0.261,1111122 
TCOON,ioos:station:TCOON:031:1,2013-12-14T22:42:00Z,28.4073,-96.7122,0.24,1111122 
TCOON,ioos:station:TCOON:031:1,2013-12-14T23:12:00Z,28.4073,-96.7122,0.245,1111122 
TCOON,ioos:station:TCOON:031:1,2013-12-14T23:42:00Z,28.4073,-96.7122,0.238,1111122 
TCOON,ioos:station:TCOON:031:1,2013-12-15T00:12:00Z,28.4073,-96.7122,0.28,1111122 
TCOON,ioos:station:TCOON:031:1,2013-12-15T00:42:00Z,28.4073,-96.7122,0.33,1111122 
TCOON,ioos:station:TCOON:031:1,2013-12-15T01:12:00Z,28.4073,-96.7122,0.355,1111122 
TCOON,ioos:station:TCOON:031:1,2013-12-15T01:42:00Z,28.4073,-96.7122,0.34,1111122 
TCOON,ioos:station:TCOON:031:1,2013-12-15T02:12:00Z,28.4073,-96.7122,0.341,1111122 
TCOON,ioos:station:TCOON:031:1,2013-12-15T02:42:00Z,28.4073,-96.7122,0.328,1111122 
TCOON,ioos:station:TCOON:031:1,2013-12-15T03:06:00Z,28.4073,-96.7122,0.34,1111122 
TCOON,ioos:station:TCOON:031:1,2013-12-15T03:42:00Z,28.4073,-96.7122,0.348,1111122 
TCOON,ioos:station:TCOON:031:1,2013-12-15T04:12:00Z,28.4073,-96.7122,0.4,1111122 
TCOON,ioos:station:TCOON:031:1,2013-12-15T04:42:00Z,28.4073,-96.7122,0.392,1111122 
TCOON,ioos:station:TCOON:031:1,2013-12-15T05:12:00Z,28.4073,-96.7122,0.402,1111122 
TCOON,ioos:station:TCOON:031:1,2013-12-15T05:42:00Z,28.4073,-96.7122,0.422,1111122 
TCOON,ioos:station:TCOON:031:1,2013-12-15T06:12:00Z,28.4073,-96.7122,0.413,1111122 
TCOON,ioos:station:TCOON:031:1,2013-12-15T06:42:00Z,28.4073,-96.7122,0.414,1111122 
TCOON,ioos:station:TCOON:031:1,2013-12-15T07:12:00Z,28.4073,-96.7122,0.413,1111122 
TCOON,ioos:station:TCOON:031:1,2013-12-15T07:42:00Z,28.4073,-96.7122,0.399,1111122 
TCOON,ioos:station:TCOON:031:1,2013-12-15T08:12:00Z,28.4073,-96.7122,0.393,1111122 
TCOON,ioos:station:TCOON:031:1,2013-12-15T08:42:00Z,28.4073,-96.7122,0.405,1111122 
TCOON,ioos:station:TCOON:031:1,2013-12-15T09:12:00Z,28.4073,-96.7122,0.388,1111122 
TCOON,ioos:station:TCOON:031:1,2013-12-15T09:42:00Z,28.4073,-96.7122,0.391,1111122 
TCOON,ioos:station:TCOON:031:1,2013-12-15T10:12:00Z,28.4073,-96.7122,0.388,1111122 
TCOON,ioos:station:TCOON:031:1,2013-12-15T10:42:00Z,28.4073,-96.7122,0.378,1111122 
TCOON,ioos:station:TCOON:031:1,2013-12-15T11:12:00Z,28.4073,-96.7122,0.373,1111122 
TCOON,ioos:station:TCOON:031:1,2013-12-15T11:42:00Z,28.4073,-96.7122,0.362,1111122 
TCOON,ioos:station:TCOON:031:1,2013-12-15T12:12:00Z,28.4073,-96.7122,0.354,1111122 
TCOON,ioos:station:TCOON:031:1,2013-12-15T12:42:00Z,28.4073,-96.7122,0.358,1111122 
TCOON,ioos:station:TCOON:031:1,2013-12-15T13:12:00Z,28.4073,-96.7122,0.351,1111122 
TCOON,ioos:station:TCOON:031:1,2013-12-15T13:42:00Z,28.4073,-96.7122,0.353,1111122 
TCOON,ioos:station:TCOON:031:1,2013-12-15T14:12:00Z,28.4073,-96.7122,0.364,1111122 
TCOON,ioos:station:TCOON:031:1,2013-12-15T14:42:00Z,28.4073,-96.7122,0.374,1111122 
TCOON,ioos:station:TCOON:031:1,2013-12-15T15:12:00Z,28.4073,-96.7122,0.361,1111122 
TCOON,ioos:station:TCOON:031:1,2013-12-15T15:48:00Z,28.4073,-96.7122,0.376,1111122 
TCOON,ioos:station:TCOON:031:1,2013-12-15T16:12:00Z,28.4073,-96.7122,0.373,1111122 
TCOON,ioos:station:TCOON:031:1,2013-12-15T16:42:00Z,28.4073,-96.7122,0.366,1111122 
TCOON,ioos:station:TCOON:031:1,2013-12-15T17:12:00Z,28.4073,-96.7122,0.356,1111122 
TCOON,ioos:station:TCOON:031:1,2013-12-15T17:42:00Z,28.4073,-96.7122,0.354,1111122 
TCOON,ioos:station:TCOON:031:1,2013-12-15T18:12:00Z,28.4073,-96.7122,0.35,1111122 
TCOON,ioos:station:TCOON:031:1,2013-12-15T18:42:00Z,28.4073,-96.7122,0.344,1111122 
TCOON,ioos:station:TCOON:031:1,2013-12-15T19:12:00Z,28.4073,-96.7122,0.324,1111122 
TCOON,ioos:station:TCOON:031:1,2013-12-15T19:42:00Z,28.4073,-96.7122,0.325,1111122 
TCOON,ioos:station:TCOON:031:1,2013-12-15T20:12:00Z,28.4073,-96.7122,0.329,1111122 
TCOON,ioos:station:TCOON:031:1,2013-12-15T20:42:00Z,28.4073,-96.7122,0.325,1111122 
TCOON,ioos:station:TCOON:031:1,2013-12-15T21:18:00Z,28.4073,-96.7122,0.313,1111122 
TCOON,ioos:station:TCOON:031:1,2013-12-15T21:42:00Z,28.4073,-96.7122,0.322,1111122 
TCOON,ioos:station:TCOON:031:1,2013-12-15T22:12:00Z,28.4073,-96.7122,0.325,1111122 
TCOON,ioos:station:TCOON:031:1,2013-12-15T22:48:00Z,28.4073,-96.7122,0.322,1111122 
TCOON,ioos:station:TCOON:031:1,2013-12-15T23:18:00Z,28.4073,-96.7122,0.325,1111122 
TCOON,ioos:station:TCOON:031:1,2013-12-15T23:48:00Z,28.4073,-96.7122,0.312,1111122 
TCOON,ioos:station:TCOON:031:1,2013-12-16T00:18:00Z,28.4073,-96.7122,0.297,1111122 
TCOON,ioos:station:TCOON:031:1,2013-12-16T00:48:00Z,28.4073,-96.7122,0.299,1111122 
TCOON,ioos:station:TCOON:031:1,2013-12-16T01:18:00Z,28.4073,-96.7122,0.298,1111122 
TCOON,ioos:station:TCOON:031:1,2013-12-16T01:48:00Z,28.4073,-96.7122,0.292,1111122 
TCOON,ioos:station:TCOON:031:1,2013-12-16T02:18:00Z,28.4073,-96.7122,0.295,1111122 
TCOON,ioos:station:TCOON:031:1,2013-12-16T02:48:00Z,28.4073,-96.7122,0.295,1111122 
TCOON,ioos:station:TCOON:031:1,2013-12-16T03:18:00Z,28.4073,-96.7122,0.293,1111122 
TCOON,ioos:station:TCOON:031:1,2013-12-16T03:48:00Z,28.4073,-96.7122,0.296,1111122 
TCOON,ioos:station:TCOON:031:1,2013-12-16T04:18:00Z,28.4073,-96.7122,0.296,1111122 
TCOON,ioos:station:TCOON:031:1,2013-12-16T04:48:00Z,28.4073,-96.7122,0.302,1111122 
TCOON,ioos:station:TCOON:031:1,2013-12-16T05:18:00Z,28.4073,-96.7122,0.293,1111122 
TCOON,ioos:station:TCOON:031:1,2013-12-16T05:48:00Z,28.4073,-96.7122,0.294,1111122 
TCOON,ioos:station:TCOON:031:1,2013-12-16T06:18:00Z,28.4073,-96.7122,0.294,1111122 
TCOON,ioos:station:TCOON:031:1,2013-12-16T06:48:00Z,28.4073,-96.7122,0.291,1111122 
TCOON,ioos:station:TCOON:031:1,2013-12-16T07:18:00Z,28.4073,-96.7122,0.297,1111122 
TCOON,ioos:station:TCOON:031:1,2013-12-16T07:48:00Z,28.4073,-96.7122,0.294,1111122 
TCOON,ioos:station:TCOON:031:1,2013-12-16T08:18:00Z,28.4073,-96.7122,0.304,1111122 
TCOON,ioos:station:TCOON:031:1,2013-12-16T08:48:00Z,28.4073,-96.7122,0.3,1111122 
TCOON,ioos:station:TCOON:031:1,2013-12-16T09:18:00Z,28.4073,-96.7122,0.309,1111122 
TCOON,ioos:station:TCOON:031:1,2013-12-16T09:48:00Z,28.4073,-96.7122,0.305,1111122 
TCOON,ioos:station:TCOON:031:1,2013-12-16T10:18:00Z,28.4073,-96.7122,0.307,1111122 
TCOON,ioos:station:TCOON:031:1,2013-12-16T10:48:00Z,28.4073,-96.7122,0.308,1111122 
TCOON,ioos:station:TCOON:031:1,2013-12-16T11:18:00Z,28.4073,-96.7122,0.304,1111122 
TCOON,ioos:station:TCOON:031:1,2013-12-16T11:48:00Z,28.4073,-96.7122,0.3,1111122 
TCOON,ioos:station:TCOON:031:1,2013-12-16T12:18:00Z,28.4073,-96.7122,0.303,1111122 
TCOON,ioos:station:TCOON:031:1,2013-12-16T12:48:00Z,28.4073,-96.7122,0.3,1111122 
TCOON,ioos:station:TCOON:031:1,2013-12-16T13:18:00Z,28.4073,-96.7122,0.292,1111122 
TCOON,ioos:station:TCOON:031:1,2013-12-16T13:48:00Z,28.4073,-96.7122,0.301,1111122 
TCOON,ioos:station:TCOON:031:1,2013-12-16T14:18:00Z,28.4073,-96.7122,0.308,1111122 
TCOON,ioos:station:TCOON:031:1,2013-12-16T14:48:00Z,28.4073,-96.7122,0.305,1111122 
TCOON,ioos:station:TCOON:031:1,2013-12-16T15:18:00Z,28.4073,-96.7122,0.298,1111122 
TCOON,ioos:station:TCOON:031:1,2013-12-16T15:48:00Z,28.4073,-96.7122,0.299,1111122 
TCOON,ioos:station:TCOON:031:1,2013-12-16T16:18:00Z,28.4073,-96.7122,0.3,1111122 
TCOON,ioos:station:TCOON:031:1,2013-12-16T16:48:00Z,28.4073,-96.7122,0.296,1111122 
TCOON,ioos:station:TCOON:031:1,2013-12-16T17:18:00Z,28.4073,-96.7122,0.289,1111122 
TCOON,ioos:station:TCOON:031:1,2013-12-16T17:48:00Z,28.4073,-96.7122,0.284,1111122 
TCOON,ioos:station:TCOON:031:1,2013-12-16T18:18:00Z,28.4073,-96.7122,0.277,1111122 
TCOON,ioos:station:TCOON:031:1,2013-12-16T18:48:00Z,28.4073,-96.7122,0.263,1111122 
TCOON,ioos:station:TCOON:031:1,2013-12-16T19:18:00Z,28.4073,-96.7122,0.266,1111122 
TCOON,ioos:station:TCOON:031:1,2013-12-16T19:48:00Z,28.4073,-96.7122,0.26,1111122 
TCOON,ioos:station:TCOON:031:1,2013-12-16T20:18:00Z,28.4073,-96.7122,0.256,1111122 
TCOON,ioos:station:TCOON:031:1,2013-12-16T20:48:00Z,28.4073,-96.7122,0.261,1111122 
TCOON,ioos:station:TCOON:031:1,2013-12-16T21:18:00Z,28.4073,-96.7122,0.256,1111122 
TCOON,ioos:station:TCOON:031:1,2013-12-16T21:48:00Z,28.4073,-96.7122,0.258,1111122 
TCOON,ioos:station:TCOON:031:1,2013-12-16T22:18:00Z,28.4073,-96.7122,0.258,1111122 
TCOON,ioos:station:TCOON:031:1,2013-12-16T22:48:00Z,28.4073,-96.7122,0.259,1111122 
TCOON,ioos:station:TCOON:031:1,2013-12-16T23:18:00Z,28.4073,-96.7122,0.251,1111122 
TCOON,ioos:station:TCOON:031:1,2013-12-16T23:48:00Z,28.4073,-96.7122,0.246,1111122 
TCOON,ioos:station:TCOON:031:1,2013-12-17T00:18:00Z,28.4073,-96.7122,0.245,1111122 
TCOON,ioos:station:TCOON:031:1,2013-12-17T00:48:00Z,28.4073,-96.7122,0.249,1111122 
TCOON,ioos:station:TCOON:031:1,2013-12-17T01:18:00Z,28.4073,-96.7122,0.256,1111122 
TCOON,ioos:station:TCOON:031:1,2013-12-17T01:48:00Z,28.4073,-96.7122,0.262,1111122 
TCOON,ioos:station:TCOON:031:1,2013-12-17T02:18:00Z,28.4073,-96.7122,0.27,1111122 
TCOON,ioos:station:TCOON:031:1,2013-12-17T02:48:00Z,28.4073,-96.7122,0.267,1111122 
TCOON,ioos:station:TCOON:031:1,2013-12-17T03:18:00Z,28.4073,-96.7122,0.271,1111122 
TCOON,ioos:station:TCOON:031:1,2013-12-17T03:48:00Z,28.4073,-96.7122,0.268,1111122 
TCOON,ioos:station:TCOON:031:1,2013-12-17T04:18:00Z,28.4073,-96.7122,0.264,1111122 
TCOON,ioos:station:TCOON:031:1,2013-12-17T04:48:00Z,28.4073,-96.7122,0.263,1111122 
TCOON,ioos:station:TCOON:031:1,2013-12-17T05:18:00Z,28.4073,-96.7122,0.265,1111122 
TCOON,ioos:station:TCOON:031:1,2013-12-17T05:48:00Z,28.4073,-96.7122,0.277,1111122 
TCOON,ioos:station:TCOON:031:1,2013-12-17T06:18:00Z,28.4073,-96.7122,0.282,1111122 
TCOON,ioos:station:TCOON:031:1,2013-12-17T06:48:00Z,28.4073,-96.7122,0.289,1111122 
TCOON,ioos:station:TCOON:031:1,2013-12-17T07:18:00Z,28.4073,-96.7122,0.289,1111122 
TCOON,ioos:station:TCOON:031:1,2013-12-17T07:48:00Z,28.4073,-96.7122,0.291,1111122 
TCOON,ioos:station:TCOON:031:1,2013-12-17T08:18:00Z,28.4073,-96.7122,0.295,1111122 
TCOON,ioos:station:TCOON:031:1,2013-12-17T08:48:00Z,28.4073,-96.7122,0.295,1111122 
TCOON,ioos:station:TCOON:031:1,2013-12-17T09:18:00Z,28.4073,-96.7122,0.298,1111122 
TCOON,ioos:station:TCOON:031:1,2013-12-17T09:48:00Z,28.4073,-96.7122,0.303,1111122 
TCOON,ioos:station:TCOON:031:1,2013-12-17T10:18:00Z,28.4073,-96.7122,0.306,1111122 
TCOON,ioos:station:TCOON:031:1,2013-12-17T10:48:00Z,28.4073,-96.7122,0.314,1111122 
TCOON,ioos:station:TCOON:031:1,2013-12-17T11:18:00Z,28.4073,-96.7122,0.315,1111122 
TCOON,ioos:station:TCOON:031:1,2013-12-17T11:48:00Z,28.4073,-96.7122,0.32,1111122 
TCOON,ioos:station:TCOON:031:1,2013-12-17T12:18:00Z,28.4073,-96.7122,0.318,1111122 
TCOON,ioos:station:TCOON:031:1,2013-12-17T12:48:00Z,28.4073,-96.7122,0.317,1111122 
TCOON,ioos:station:TCOON:031:1,2013-12-17T13:18:00Z,28.4073,-96.7122,0.317,1111122 
TCOON,ioos:station:TCOON:031:1,2013-12-17T13:48:00Z,28.4073,-96.7122,0.314,1111122 
TCOON,ioos:station:TCOON:031:1,2013-12-17T14:18:00Z,28.4073,-96.7122,0.311,1111122 
TCOON,ioos:station:TCOON:031:1,2013-12-17T14:48:00Z,28.4073,-96.7122,0.308,1111122 
TCOON,ioos:station:TCOON:031:1,2013-12-17T15:18:00Z,28.4073,-96.7122,0.308,1111122 
TCOON,ioos:station:TCOON:031:1,2013-12-17T15:48:00Z,28.4073,-96.7122,0.308,1111122 
TCOON,ioos:station:TCOON:031:1,2013-12-17T16:24:00Z,28.4073,-96.7122,0.307,1111122 
TCOON,ioos:station:TCOON:031:1,2013-12-17T16:48:00Z,28.4073,-96.7122,0.318,1111122 
TCOON,ioos:station:TCOON:031:1,2013-12-17T17:18:00Z,28.4073,-96.7122,0.317,1111122 
TCOON,ioos:station:TCOON:031:1,2013-12-17T17:48:00Z,28.4073,-96.7122,0.307,1111122 
TCOON,ioos:station:TCOON:031:1,2013-12-17T18:18:00Z,28.4073,-96.7122,0.304,1111122 
TCOON,ioos:station:TCOON:031:1,2013-12-17T18:48:00Z,28.4073,-96.7122,0.297,1111122 
TCOON,ioos:station:TCOON:031:1,2013-12-17T19:24:00Z,28.4073,-96.7122,0.295,1111122 
TCOON,ioos:station:TCOON:031:1,2013-12-17T19:48:00Z,28.4073,-96.7122,0.292,1111122 
TCOON,ioos:station:TCOON:031:1,2013-12-17T20:24:00Z,28.4073,-96.7122,0.294,1111122 
TCOON,ioos:station:TCOON:031:1,2013-12-17T20:54:00Z,28.4073,-96.7122,0.287,1111122 
TCOON,ioos:station:TCOON:031:1,2013-12-17T21:48:00Z,28.4073,-96.7122,0.285,1111122 
TCOON,ioos:station:TCOON:031:1,2013-12-17T22:24:00Z,28.4073,-96.7122,0.28,1111122 
TCOON,ioos:station:TCOON:031:1,2013-12-17T23:24:00Z,28.4073,-96.7122,0.275,1111122 
TCOON,ioos:station:TCOON:031:1,2013-12-18T00:18:00Z,28.4073,-96.7122,0.278,1111122 
TCOON,ioos:station:TCOON:031:1,2013-12-18T00:48:00Z,28.4073,-96.7122,0.285,1111122 
TCOON,ioos:station:TCOON:031:1,2013-12-18T01:18:00Z,28.4073,-96.7122,0.289,1111122 
TCOON,ioos:station:TCOON:031:1,2013-12-18T01:48:00Z,28.4073,-96.7122,0.271,1111122 
TCOON,ioos:station:TCOON:031:1,2013-12-18T02:18:00Z,28.4073,-96.7122,0.28,1111122 
TCOON,ioos:station:TCOON:031:1,2013-12-18T02:48:00Z,28.4073,-96.7122,0.284,1111122 
TCOON,ioos:station:TCOON:031:1,2013-12-18T03:18:00Z,28.4073,-96.7122,0.291,1111122 
TCOON,ioos:station:TCOON:031:1,2013-12-18T03:48:00Z,28.4073,-96.7122,0.3,1111122 
TCOON,ioos:station:TCOON:031:1,2013-12-18T04:18:00Z,28.4073,-96.7122,0.296,1111122 
TCOON,ioos:station:TCOON:031:1,2013-12-18T04:48:00Z,28.4073,-96.7122,0.304,1111122 
TCOON,ioos:station:TCOON:031:1,2013-12-18T05:48:00Z,28.4073,-96.7122,0.307,1111122 
TCOON,ioos:station:TCOON:031:1,2013-12-18T06:18:00Z,28.4073,-96.7122,0.315,1111122 
TCOON,ioos:station:TCOON:031:1,2013-12-18T06:48:00Z,28.4073,-96.7122,0.313,1111122 
TCOON,ioos:station:TCOON:031:1,2013-12-18T07:18:00Z,28.4073,-96.7122,0.314,1111122 
TCOON,ioos:station:TCOON:031:1,2013-12-18T07:48:00Z,28.4073,-96.7122,0.317,1111122 
TCOON,ioos:station:TCOON:031:1,2013-12-18T08:18:00Z,28.4073,-96.7122,0.321,1111122 
TCOON,ioos:station:TCOON:031:1,2013-12-18T08:48:00Z,28.4073,-96.7122,0.325,1111122 
TCOON,ioos:station:TCOON:031:1,2013-12-18T09:18:00Z,28.4073,-96.7122,0.328,1111122 
TCOON,ioos:station:TCOON:031:1,2013-12-18T09:48:00Z,28.4073,-96.7122,0.334,1111122 
TCOON,ioos:station:TCOON:031:1,2013-12-18T10:18:00Z,28.4073,-96.7122,0.338,1111122 
TCOON,ioos:station:TCOON:031:1,2013-12-18T10:48:00Z,28.4073,-96.7122,0.341,1111122 
TCOON,ioos:station:TCOON:031:1,2013-12-18T11:18:00Z,28.4073,-96.7122,0.342,1111122 
TCOON,ioos:station:TCOON:031:1,2013-12-18T11:48:00Z,28.4073,-96.7122,0.341,1111122 
TCOON,ioos:station:TCOON:031:1,2013-12-18T12:18:00Z,28.4073,-96.7122,0.344,1111122 
TCOON,ioos:station:TCOON:031:1,2013-12-18T12:48:00Z,28.4073,-96.7122,0.343,1111122 
TCOON,ioos:station:TCOON:031:1,2013-12-18T13:18:00Z,28.4073,-96.7122,0.344,1111122 